Location: Napoli
(40.8639°N, 14.2562°E)
Time: 14:15:37
(UTC+02:00)

ISS - Pass Details

Date: 21 May 2025
Orbit: 415 x 417 km, 51.6° (Epoch: 15 June)

Event Time Altitude Azimuth Distance (km) Brightness Sun altitude
Rises 23:55:02 0° 300° (WNW) 2,357 0.7 -26.9°
Reaches altitude 10° 23:57:13 10° 291° (WNW) 1,490 -0.5 -27.1°
Enters shadow 23:57:27 12° 290° (WNW) 1,400 -0.7 -27.1°
